ATLAS 5 CENTAUR DEB, 46846

Orbit data source: Space-Track

ATLAS 5 CENTAUR DEB, 46846 is space debris in HEO originally from a launch on Wed, 17 Oct 2018 UTC launched from the Air Force Eastern Test Range (AFETR). Debris objects in space refer to the collection of defunct objects orbiting the Earth. Examples of debris include non-operational satellites, rocket bodies, and fragments generated from explosions, collisions, or faulty payload assembly.

Loading next visibility...
Identifier
46846, 2018-079DB
Orbit
HEO
Country
Flag of USUS
Related business
Flag of USUnited Launch Alliance/Lockheed Martin (US)
Manufacturer
ULA Decatur
Mission
Spacecraft
Bus & Motor
Unknown
Mass
Unknown
Launch date (UTC)
2018-10-17 (7 years ago)
Launch vehicle
Unknown
Launch site
Air Force Eastern Test Range (AFETR)
Object type
Payload
Rocket body
Debris
Shape & HBR
Unknown
Radar Cross Section
RCS unknown

Expand to show TLE details & history
Last TLE update: 4 days ago

TLE from 4 days ago
0 ATLAS 5 CENTAUR DEB
1 46846U 18079DB  25254.80910084 -.00000099  00000-0  00000-0 0  9990
2 46846  11.7880  83.5546 4617897 222.8550  90.2074  1.71801711 30510
Epoch: 2025-09-11T19:25Z
TLE epoch observation values (Epoch: 2025-09-11T19:25:06.312Z)
Latitude
-0.00002°
Longitude
161.2869°
Altitude
28,627.181 km
Speed
3.039 km/s
True Right ascension
05h 34m 30s
True Declination
0° 00' 00"
Sunlit
Object was in daylight at epoch
Visualization orbit readout
Latitude
Unknown
Longitude
Unknown
Altitude
Unknown
Speed
Unknown
Apparent Right ascension
Unknown
Apparent Declination
Unknown
Sunlit
N/A
Visualization observer readout
Local Sidereal Time
01:43:06
Azimuth
Unknown
Elevation
Unknown
Doppler factor
Unknown
Orbital elements
Apogee altitude
36,671.052 km
Perigee altitude
9,471.966 km
Semi-major axis
29,449.646 km
Eccentricity
0.46179
Inclination
11.788°
RAAN
83.5546°
Arg. of periapsis
222.855°
True anomaly
137.2237°
Mean anomaly
90.2074°
Eccentric anomaly
114.31836°
Mean motion
0.42946 °/min
Orbital period
838.26 mins
BSTAR
0
Loading maneuver chart data...
Computing Atmospheric mass density...

Documentation

Showing up to 5 results
|